Regional Weather Roundup
Issued by NWS

Home | Current Version | Previous Version | Graphics & Text | Print | Product List | Glossary Off
Versions: 1 2 3 4 5 6 7 8 9 10 11 12 13 14 15 16 17 18 19 20 21 22 23 24 25 26 27 28 29 30 31 32 33 34 35 36 37 38 39 40 41 42 43 44 45 46 47 48 49 50

000
ASUS43 KTOP 192008
RWRKS

WEATHER ROUNDUP FOR KANSAS
NATIONAL WEATHER SERVICE GOODLAND KS
200 PM CST MON FEB 19 2018

NOTE:  "FAIR" INDICATES FEW OR NO CLOUDS BELOW 12,000 FEET WITH NO
SIGNIFICANT WEATHER AND/OR OBSTRUCTIONS TO VISIBILITY.

KSZ001>006-013>018-027>032-041>047-192100-
NORTHWEST KANSAS

CITY           SKY/WX    TMP DP  RH WIND       PRES   REMARKS
GOODLAND       LGT SNOW  18  12  77 NE8       29.72F
HAYS           CLOUDY    25  16  68 N10       29.81F WCI  15
HILL CITY      CLOUDY    22  14  71 N10       29.83F WCI  11
RUSSELL        CLOUDY    28  17  63 N13       29.80F WCI  17
$$

KSZ061>065-074>080-084>089-192100-
SOUTHWEST KANSAS

CITY           SKY/WX    TMP DP  RH WIND       PRES   REMARKS
DODGE CITY     CLOUDY    30  16  56 N14       29.75F WCI  19
ELKHART        MOSUNNY   35  25  66 E5        29.69F
GARDEN CITY    CLOUDY    29  15  56 N10       29.74F WCI  20
GREAT BEND     CLOUDY    30  19  64 NW14G20   29.79F WCI  20
LIBERAL        CLOUDY    36  20  52 NE6       29.74F
PRATT          CLOUDY    33  20  58 N12G20    29.80R WCI  24
$$

KSZ066>073-081>083-090>101-192100-
SOUTHEAST KANSAS

CITY           SKY/WX    TMP DP  RH WIND       PRES   REMARKS
CHANUTE        LGT RAIN  42  39  89 NW12      29.76S FOG
COFFEYVILLE    CLOUDY    56  55  97 NW16G22   29.72R FOG
HUTCHINSON     CLOUDY    30  25  81 N13       29.80F WCI  20
MEDICINE LODGE   N/A     35  24  64 N12G18    29.79S WCI  27
NEWTON         CLOUDY    27  24  89 N15       29.80S WCI  15
PARSONS        LGT RAIN  44  43  96 N13       29.74F FOG
WICHITA INTL   CLOUDY    32  26  78 N15       29.80R WCI  22
WICHITA JABRA  CLOUDY    30  27  88 N14       29.79S WCI  19
WICHITA MCCONL CLOUDY    30  25  80 N13G18    29.79  WCI  20
WINFIELD       CLOUDY    35  33  92 NW15      29.79R WCI  25
$$

KSZ007>012-019>026-033>040-048>060-102>105-192100-
NORTHEAST KANSAS

CITY           SKY/WX    TMP DP  RH WIND       PRES   REMARKS
CONCORDIA      CLOUDY    24  18  77 N14       29.82F WCI  12
EMPORIA        CLOUDY    31  27  85 NW14      29.78F WCI  21
LAWRENCE       CLOUDY    34  31  88 NW10      29.80R WCI  26
MANHATTAN      CLOUDY    30  23  75 N8        29.83R
MARYSVILLE     CLOUDY    27  23  86 N14       29.81S WCI  15
OLATHE IND     CLOUDY    37  33  85 NW13      29.78R WCI  29
OLATHE EXE     CLOUDY    37  34  89 NW9       29.76R
SALINA         CLOUDY    30  20  66 NW16      29.83F WCI  19
TOPEKA BILLARD CLOUDY    34  29  82 NW13      29.79F WCI  25
TOPEKA FORBES  CLOUDY    34  29  82 NW12      29.78F WCI  25
$$




USA.gov is the U.S. government's official web portal to all federal, state and local government web resources and services.